| time (UTC) | temp F | wind direction | speed MPH | gust MPH | rain 1hr in | rain 24hr in | rain mn in | humidity % | barometer mb |
| 20260508122022 | 61 | 358 | 0.0 | 0.0 | 0.00 | 0.00 | 0.00 | 87 | 1018.0 |
| 20260508121520 | 61 | 43 | 0.0 | 1.0 | 0.00 | 0.00 | 0.00 | 86 | 1018.3 |
| 20260508121018 | 61 | 36 | 2.0 | 3.0 | 0.00 | 0.00 | 0.00 | 86 | 1018.0 |
| 20260508120515 | 62 | 1 | 0.0 | 1.0 | 0.00 | 0.00 | 0.00 | 86 | 1018.0 |
| 20260508120013 | 62 | 4 | 1.0 | 2.0 | 0.00 | 0.00 | 0.00 | 87 | 1018.3 |
| 20260508115510 | 62 | 10 | 1.0 | 2.0 | 0.00 | 0.00 | 0.00 | 87 | 1018.3 |
| 20260508115006 | 62 | 1 | 0.0 | 2.0 | 0.00 | 0.00 | 0.00 | 87 | 1018.0 |
| 20260508114504 | 61 | 49 | 1.0 | 3.0 | 0.00 | 0.00 | 0.00 | 87 | 1018.0 |
| 20260508114000 | 61 | 27 | 0.0 | 0.0 | 0.00 | 0.00 | 0.00 | 87 | 1018.0 |
| 20260508113458 | 61 | 16 | 0.0 | 1.0 | 0.00 | 0.00 | 0.00 | 87 | 1018.3 |
| 20260508112955 | 61 | 0 | 0.0 | 2.0 | 0.00 | 0.00 | 0.00 | 87 | 1018.0 |
| 20260508112451 | 61 | 20 | 2.0 | 3.0 | 0.00 | 0.00 | 0.00 | 87 | 1018.0 |
| 20260508111948 | 61 | 0 | 0.0 | 1.0 | 0.00 | 0.00 | 0.00 | 88 | 1018.0 |
| 20260508111445 | 61 | 27 | 1.0 | 2.0 | 0.00 | 0.00 | 0.00 | 88 | 1017.6 |
| 20260508110942 | 61 | 6 | 0.0 | 1.0 | 0.00 | 0.00 | 0.00 | 88 | 1017.6 |
| 20260508110440 | 61 | 354 | 0.0 | 0.0 | 0.00 | 0.00 | 0.00 | 88 | 1018.0 |
| 20260508105939 | 61 | 348 | 0.0 | 0.0 | 0.00 | 0.00 | 0.00 | 88 | 1018.0 |
| 20260508105436 | 61 | 352 | 0.0 | 0.0 | 0.00 | 0.00 | 0.00 | 88 | 1018.0 |
| 20260508104933 | 61 | 6 | 0.0 | 0.0 | 0.00 | 0.00 | 0.00 | 88 | 1018.0 |
| 20260508104431 | 61 | 26 | 1.0 | 1.0 | 0.00 | 0.00 | 0.00 | 88 | 1018.0 |
| 20260508103927 | 61 | 1 | 0.0 | 1.0 | 0.00 | 0.00 | 0.00 | 88 | 1018.0 |
| 20260508103424 | 61 | 359 | 0.0 | 1.0 | 0.00 | 0.00 | 0.00 | 88 | 1017.6 |
| 20260508102921 | 61 | 359 | 0.0 | 2.0 | 0.00 | 0.00 | 0.00 | 88 | 1017.6 |
| 20260508102420 | 61 | 12 | 1.0 | 3.0 | 0.00 | 0.00 | 0.00 | 88 | 1018.0 |
| 20260508101917 | 61 | 356 | 0.0 | 0.0 | 0.00 | 0.00 | 0.00 | 88 | 1018.0 |
| 20260508101414 | 61 | 358 | 0.0 | 0.0 | 0.00 | 0.00 | 0.00 | 89 | 1018.0 |
| 20260508100911 | 61 | 1 | 0.0 | 1.0 | 0.00 | 0.00 | 0.00 | 89 | 1017.6 |
| 20260508100410 | 61 | 9 | 0.0 | 1.0 | 0.00 | 0.00 | 0.00 | 89 | 1017.6 |
| 20260508095905 | 61 | 1 | 0.0 | 1.0 | 0.00 | 0.00 | 0.00 | 89 | 1017.6 |
| 20260508095403 | 61 | 10 | 0.0 | 0.0 | 0.00 | 0.00 | 0.00 | 89 | 1018.0 |
| 20260508094900 | 61 | 354 | 0.0 | 0.0 | 0.00 | 0.00 | 0.00 | 90 | 1018.0 |
| 20260508094356 | 60 | 347 | 0.0 | 2.0 | 0.00 | 0.00 | 0.00 | 90 | 1018.3 |
| 20260508093853 | 60 | 28 | 0.0 | 2.0 | 0.00 | 0.00 | 0.00 | 90 | 1018.3 |
| 20260508093351 | 60 | 339 | 0.0 | 0.0 | 0.00 | 0.00 | 0.00 | 90 | 1018.3 |
| 20260508092848 | 60 | 338 | 0.0 | 0.0 | 0.00 | 0.00 | 0.00 | 90 | 1018.0 |
| 20260508092346 | 60 | 334 | 0.0 | 0.0 | 0.00 | 0.00 | 0.00 | 91 | 1018.0 |
| 20260508091844 | 60 | 338 | 0.0 | 0.0 | 0.00 | 0.00 | 0.00 | 91 | 1018.0 |
| 20260508091340 | 60 | 335 | 0.0 | 0.0 | 0.00 | 0.00 | 0.00 | 91 | 1018.0 |
| 20260508090838 | 60 | 335 | 0.0 | 0.0 | 0.00 | 0.00 | 0.00 | 91 | 1018.0 |
| 20260508090337 | 60 | 335 | 0.0 | 0.0 | 0.00 | 0.00 | 0.00 | 91 | 1018.3 |
| 20260508085832 | 60 | 336 | 0.0 | 0.0 | 0.00 | 0.00 | 0.00 | 91 | 1018.7 |
| 20260508085329 | 60 | 336 | 0.0 | 0.0 | 0.00 | 0.00 | 0.00 | 91 | 1018.3 |
| 20260508084825 | 60 | 336 | 0.0 | 0.0 | 0.00 | 0.00 | 0.00 | 91 | 1018.3 |
| 20260508084322 | 60 | 338 | 0.0 | 0.0 | 0.00 | 0.00 | 0.00 | 90 | 1018.7 |
| 20260508083820 | 60 | 338 | 0.0 | 0.0 | 0.00 | 0.00 | 0.00 | 90 | 1018.3 |
| 20260508083317 | 60 | 335 | 0.0 | 0.0 | 0.00 | 0.00 | 0.00 | 90 | 1018.3 |
| 20260508082816 | 60 | 334 | 0.0 | 0.0 | 0.00 | 0.00 | 0.00 | 90 | 1018.3 |
| 20260508082315 | 60 | 337 | 0.0 | 0.0 | 0.00 | 0.00 | 0.00 | 90 | 1018.7 |
| 20260508081812 | 60 | 338 | 0.0 | 0.0 | 0.00 | 0.00 | 0.00 | 90 | 1018.3 |
| 20260508081308 | 60 | 336 | 0.0 | 0.0 | 0.00 | 0.00 | 0.00 | 90 | 1018.7 |
| 20260508080806 | 60 | 329 | 0.0 | 0.0 | 0.00 | 0.00 | 0.00 | 90 | 1018.7 |
| 20260508080304 | 60 | 333 | 0.0 | 0.0 | 0.00 | 0.00 | 0.00 | 89 | 1018.7 |
| 20260508075800 | 60 | 326 | 0.0 | 1.0 | 0.00 | 0.00 | 0.00 | 90 | 1018.7 |
| 20260508075257 | 61 | 317 | 1.0 | 1.0 | 0.00 | 0.00 | 0.00 | 90 | 1018.7 |
| 20260508074755 | 61 | 337 | 0.0 | 0.0 | 0.00 | 0.00 | 0.00 | 90 | 1018.7 |
| 20260508074251 | 61 | 322 | 1.0 | 1.0 | 0.00 | 0.00 | 0.00 | 90 | 1018.7 |
| 20260508073749 | 61 | 339 | 0.0 | 1.0 | 0.00 | 0.00 | 0.00 | 90 | 1018.7 |
| 20260508073247 | 61 | 318 | 0.0 | 1.0 | 0.00 | 0.00 | 0.00 | 90 | 1018.7 |
| 20260508072742 | 61 | 328 | 1.0 | 1.0 | 0.00 | 0.00 | 0.00 | 90 | 1019.0 |
| 20260508072239 | 61 | 333 | 1.0 | 1.0 | 0.00 | 0.00 | 0.00 | 90 | 1018.7 |
| 20260508071737 | 61 | 352 | 0.0 | 0.0 | 0.00 | 0.00 | 0.00 | 90 | 1019.0 |
| 20260508071235 | 60 | 343 | 0.0 | 0.0 | 0.00 | 0.00 | 0.00 | 90 | 1018.7 |
| 20260508070732 | 61 | 304 | 0.0 | 1.0 | 0.00 | 0.00 | 0.00 | 90 | 1018.7 |
| 20260508070231 | 61 | 345 | 1.0 | 1.0 | 0.00 | 0.00 | 0.00 | 90 | 1018.7 |
| 20260508065727 | 61 | 327 | 0.0 | 2.0 | 0.00 | 0.00 | 0.00 | 90 | 1018.7 |
| 20260508065225 | 61 | 3 | 0.0 | 1.0 | 0.00 | 0.00 | 0.00 | 90 | 1018.7 |
| 20260508064723 | 61 | 243 | 2.0 | 2.0 | 0.00 | 0.00 | 0.00 | 89 | 1018.7 |
| 20260508064221 | 61 | 11 | 0.0 | 1.0 | 0.00 | 0.00 | 0.00 | 89 | 1018.7 |
| 20260508063718 | 61 | 339 | 0.0 | 0.0 | 0.00 | 0.00 | 0.00 | 89 | 1018.7 |
| 20260508063216 | 61 | 325 | 0.0 | 3.0 | 0.00 | 0.00 | 0.00 | 89 | 1018.7 |
| 20260508062713 | 61 | 274 | 0.0 | 1.0 | 0.00 | 0.00 | 0.00 | 89 | 1018.7 |
| 20260508062210 | 61 | 312 | 1.0 | 2.0 | 0.00 | 0.00 | 0.00 | 89 | 1018.7 |
| 20260508061707 | 61 | 329 | 1.0 | 2.0 | 0.00 | 0.00 | 0.00 | 89 | 1018.7 |
| 20260508061204 | 61 | 297 | 2.0 | 2.0 | 0.00 | 0.00 | 0.00 | 89 | 1018.7 |
| 20260508060702 | 61 | 316 | 0.0 | 0.0 | 0.00 | 0.00 | 0.00 | 90 | 1018.3 |
| 20260508060158 | 61 | 313 | 0.0 | 0.0 | 0.00 | 0.00 | 0.00 | 90 | 1018.3 |
| 20260508055654 | 61 | 338 | 0.0 | 0.0 | 0.00 | 0.00 | 0.00 | 90 | 1018.3 |
| 20260508055151 | 61 | 0 | 0.0 | 1.0 | 0.00 | 0.00 | 0.00 | 90 | 1018.3 |
| 20260508054647 | 61 | 309 | 0.0 | 0.0 | 0.00 | 0.00 | 0.00 | 90 | 1018.3 |
| 20260508054145 | 61 | 336 | 0.0 | 0.0 | 0.00 | 0.00 | 0.00 | 90 | 1018.7 |
| 20260508053642 | 61 | 329 | 0.0 | 0.0 | 0.00 | 0.00 | 0.00 | 90 | 1018.7 |
| 20260508053139 | 61 | 339 | 0.0 | 0.0 | 0.00 | 0.00 | 0.00 | 90 | 1018.7 |
| 20260508052636 | 61 | 326 | 0.0 | 1.0 | 0.00 | 0.00 | 0.00 | 90 | 1018.3 |
| 20260508052133 | 61 | 338 | 0.0 | 0.0 | 0.00 | 0.00 | 0.00 | 90 | 1018.3 |
| 20260508051629 | 60 | 343 | 0.0 | 1.0 | 0.00 | 0.00 | 0.00 | 90 | 1018.7 |
| 20260508051125 | 60 | 309 | 0.0 | 1.0 | 0.00 | 0.00 | 0.00 | 91 | 1018.7 |
| 20260508050621 | 60 | 319 | 0.0 | 1.0 | 0.00 | 0.00 | 0.00 | 90 | 1018.7 |
| 20260508050119 | 60 | 334 | 0.0 | 2.0 | 0.00 | 0.00 | 0.00 | 90 | 1018.7 |
| 20260508045615 | 60 | 341 | 0.0 | 1.0 | 0.00 | 0.00 | 0.00 | 90 | 1018.7 |
| 20260508045113 | 60 | 342 | 0.0 | 1.0 | 0.00 | 0.00 | 0.00 | 90 | 1018.3 |
| 20260508044610 | 60 | 328 | 0.0 | 1.0 | 0.00 | 0.00 | 0.00 | 90 | 1018.3 |
| 20260508044106 | 60 | 310 | 0.0 | 1.0 | 0.00 | 0.00 | 0.00 | 90 | 1018.3 |
| 20260508043602 | 60 | 313 | 1.0 | 1.0 | 0.00 | 0.00 | 0.00 | 90 | 1018.0 |
| 20260508043100 | 60 | 320 | 0.0 | 0.0 | 0.00 | 0.00 | 0.00 | 91 | 1018.0 |
| 20260508042557 | 60 | 328 | 0.0 | 0.0 | 0.00 | 0.00 | 0.00 | 91 | 1018.0 |
| 20260508042054 | 60 | 335 | 0.0 | 2.0 | 0.00 | 0.00 | 0.00 | 91 | 1018.3 |
| 20260508041550 | 60 | 299 | 1.0 | 1.0 | 0.00 | 0.00 | 0.00 | 91 | 1017.6 |
| 20260508041047 | 60 | 276 | 2.0 | 2.0 | 0.00 | 0.00 | 0.00 | 91 | 1017.6 |
| 20260508040543 | 60 | 319 | 1.0 | 1.0 | 0.00 | 0.00 | 0.00 | 91 | 1017.6 |
| 20260508040042 | 60 | 348 | 0.0 | 2.0 | 0.00 | 0.00 | 0.00 | 91 | 1017.6 |
| 20260508035538 | 60 | 309 | 0.0 | 2.0 | 0.00 | 0.00 | 0.00 | 91 | 1017.6 |
| 20260508035035 | 60 | 339 | 0.0 | 2.0 | 0.00 | 0.00 | 0.00 | 91 | 1017.6 |
| 20260508034532 | 60 | 231 | 1.0 | 1.0 | 0.00 | 0.00 | 0.00 | 91 | 1017.6 |
| 20260508034029 | 60 | 270 | 2.0 | 2.0 | 0.00 | 0.00 | 0.00 | 91 | 1017.6 |
| 20260508033527 | 60 | 324 | 2.0 | 2.0 | 0.00 | 0.00 | 0.00 | 91 | 1017.3 |
| 20260508033025 | 60 | 267 | 1.0 | 3.0 | 0.00 | 0.00 | 0.00 | 91 | 1017.3 |
| 20260508032521 | 60 | 317 | 2.0 | 4.0 | 0.00 | 0.00 | 0.00 | 91 | 1017.3 |
| 20260508032019 | 60 | 12 | 1.0 | 4.0 | 0.00 | 0.00 | 0.00 | 90 | 1017.3 |
| 20260508031516 | 60 | 306 | 1.0 | 3.0 | 0.00 | 0.00 | 0.00 | 90 | 1017.0 |
| 20260508031011 | 60 | 289 | 2.0 | 3.0 | 0.00 | 0.00 | 0.00 | 90 | 1017.3 |
| 20260508030508 | 60 | 255 | 3.0 | 6.0 | 0.00 | 0.00 | 0.00 | 90 | 1017.0 |
| 20260508030007 | 60 | 248 | 3.0 | 3.0 | 0.00 | 0.00 | 0.00 | 89 | 1017.0 |
| 20260508025502 | 60 | 295 | 2.0 | 2.0 | 0.00 | 0.00 | 0.00 | 89 | 1017.0 |
| 20260508024959 | 60 | 246 | 1.0 | 2.0 | 0.00 | 0.00 | 0.00 | 89 | 1017.0 |
| 20260508024455 | 61 | 253 | 3.0 | 6.0 | 0.00 | 0.00 | 0.00 | 88 | 1017.0 |
| 20260508023952 | 61 | 203 | 2.0 | 3.0 | 0.00 | 0.00 | 0.00 | 88 | 1016.6 |
| 20260508023449 | 61 | 238 | 2.0 | 6.0 | 0.00 | 0.00 | 0.00 | 87 | 1017.0 |
| 20260508022946 | 61 | 233 | 2.0 | 4.0 | 0.00 | 0.00 | 0.00 | 86 | 1017.0 |
| 20260508022442 | 61 | 261 | 2.0 | 3.0 | 0.00 | 0.00 | 0.00 | 86 | 1016.6 |
| 20260508021938 | 62 | 334 | 1.0 | 4.0 | 0.00 | 0.00 | 0.00 | 85 | 1016.6 |
| 20260508021435 | 62 | 286 | 1.0 | 4.0 | 0.00 | 0.00 | 0.00 | 84 | 1016.6 |
| 20260508020931 | 62 | 198 | 2.0 | 3.0 | 0.00 | 0.00 | 0.00 | 83 | 1016.6 |
| 20260508020429 | 62 | 282 | 3.0 | 4.0 | 0.00 | 0.00 | 0.00 | 82 | 1016.6 |
| 20260508015926 | 62 | 299 | 2.0 | 4.0 | 0.00 | 0.00 | 0.00 | 82 | 1016.3 |
| 20260508015424 | 62 | 281 | 4.0 | 7.0 | 0.00 | 0.00 | 0.00 | 83 | 1016.6 |
| 20260508014920 | 62 | 288 | 2.0 | 6.0 | 0.00 | 0.00 | 0.00 | 83 | 1016.3 |
| 20260508014417 | 63 | 302 | 2.0 | 7.0 | 0.00 | 0.00 | 0.00 | 82 | 1016.3 |
| 20260508013912 | 63 | 279 | 2.0 | 6.0 | 0.00 | 0.00 | 0.00 | 82 | 1016.6 |
| 20260508013408 | 63 | 273 | 2.0 | 6.0 | 0.00 | 0.00 | 0.00 | 82 | 1016.3 |
| 20260508012906 | 63 | 349 | 3.0 | 7.0 | 0.00 | 0.00 | 0.00 | 82 | 1016.6 |
| 20260508012403 | 63 | 312 | 2.0 | 6.0 | 0.00 | 0.00 | 0.00 | 82 | 1016.3 |
| 20260508011901 | 63 | 354 | 2.0 | 2.0 | 0.00 | 0.00 | 0.00 | 81 | 1016.3 |
| 20260508011359 | 63 | 250 | 4.0 | 6.0 | 0.00 | 0.00 | 0.00 | 82 | 1016.6 |
| 20260508010855 | 64 | 224 | 3.0 | 4.0 | 0.00 | 0.00 | 0.00 | 81 | 1016.6 |
| 20260508010353 | 64 | 243 | 2.0 | 8.0 | 0.00 | 0.00 | 0.00 | 80 | 1016.6 |
| 20260508005850 | 64 | 260 | 2.0 | 4.0 | 0.00 | 0.00 | 0.00 | 79 | 1016.3 |
| 20260508005346 | 64 | 327 | 1.0 | 2.0 | 0.00 | 0.00 | 0.00 | 78 | 1016.6 |
| 20260508004843 | 64 | 227 | 4.0 | 6.0 | 0.00 | 0.00 | 0.00 | 78 | 1016.3 |
| 20260508004339 | 65 | 229 | 3.0 | 10.0 | 0.00 | 0.00 | 0.00 | 78 | 1016.3 |
| 20260508003835 | 65 | 255 | 6.0 | 7.0 | 0.00 | 0.00 | 0.00 | 78 | 1016.3 |
| 20260508003333 | 65 | 330 | 2.0 | 4.0 | 0.00 | 0.00 | 0.00 | 78 | 1016.3 |
| 20260508002830 | 65 | 261 | 4.0 | 7.0 | 0.00 | 0.00 | 0.00 | 76 | 1016.3 |
| 20260508002326 | 66 | 244 | 4.0 | 4.0 | 0.00 | 0.00 | 0.00 | 75 | 1016.6 |
| 20260508001823 | 66 | 326 | 1.0 | 4.0 | 0.00 | 0.00 | 0.00 | 75 | 1016.6 |
| 20260508001319 | 67 | 260 | 3.0 | 6.0 | 0.00 | 0.00 | 0.00 | 73 | 1016.6 |
| 20260508000815 | 67 | 108 | 2.0 | 7.0 | 0.00 | 0.00 | 0.00 | 73 | 1016.3 |
| 20260508000312 | 67 | 308 | 3.0 | 6.0 | 0.00 | 0.00 | 0.00 | 74 | 1016.3 |
| 20260507235808 | 67 | 270 | 1.0 | 3.0 | 0.00 | 0.00 | 0.00 | 74 | 1016.6 |
| 20260507235307 | 66 | 293 | 3.0 | 7.0 | 0.00 | 0.00 | 0.00 | 74 | 1016.6 |
| 20260507234803 | 66 | 253 | 4.0 | 7.0 | 0.00 | 0.00 | 0.00 | 75 | 1016.6 |
| 20260507234259 | 66 | 252 | 3.0 | 7.0 | 0.00 | 0.00 | 0.00 | 76 | 1016.6 |
| 20260507233755 | 67 | 274 | 4.0 | 7.0 | 0.00 | 0.00 | 0.00 | 75 | 1017.0 |
| 20260507233253 | 66 | 254 | 4.0 | 7.0 | 0.00 | 0.00 | 0.00 | 76 | 1016.6 |
| 20260507232751 | 66 | 298 | 1.0 | 7.0 | 0.00 | 0.00 | 0.00 | 76 | 1016.6 |
| 20260507232247 | 66 | 253 | 1.0 | 3.0 | 0.00 | 0.00 | 0.00 | 78 | 1016.6 |
| 20260507231744 | 66 | 314 | 2.0 | 8.0 | 0.00 | 0.00 | 0.00 | 77 | 1016.6 |
| 20260507231241 | 66 | 121 | 2.0 | 8.0 | 0.00 | 0.00 | 0.00 | 77 | 1016.3 |
| 20260507230737 | 67 | 35 | 2.0 | 3.0 | 0.00 | 0.00 | 0.00 | 77 | 1016.6 |
| 20260507230235 | 67 | 329 | 1.0 | 7.0 | 0.00 | 0.00 | 0.00 | 78 | 1017.0 |
| 20260507225734 | 67 | 262 | 4.0 | 6.0 | 0.00 | 0.00 | 0.00 | 76 | 1017.0 |
| 20260507225231 | 68 | 246 | 5.0 | 7.0 | 0.00 | 0.00 | 0.00 | 75 | 1016.6 |
| 20260507224727 | 69 | 207 | 2.0 | 4.0 | 0.00 | 0.00 | 0.00 | 73 | 1016.6 |
| 20260507224224 | 68 | 206 | 4.0 | 6.0 | 0.00 | 0.00 | 0.00 | 74 | 1017.0 |
| 20260507223720 | 68 | 147 | 4.0 | 7.0 | 0.00 | 0.00 | 0.00 | 74 | 1017.0 |
| 20260507223217 | 68 | 276 | 3.0 | 9.0 | 0.00 | 0.00 | 0.00 | 74 | 1017.0 |
| 20260507222713 | 68 | 282 | 2.0 | 7.0 | 0.00 | 0.00 | 0.00 | 74 | 1016.6 |
| 20260507222210 | 68 | 273 | 5.0 | 8.0 | 0.00 | 0.00 | 0.00 | 75 | 1017.0 |
| 20260507221707 | 69 | 228 | 5.0 | 8.0 | 0.00 | 0.00 | 0.00 | 72 | 1017.0 |
| 20260507221203 | 69 | 294 | 3.0 | 7.0 | 0.00 | 0.00 | 0.00 | 72 | 1017.3 |
| 20260507220700 | 68 | 189 | 4.0 | 7.0 | 0.00 | 0.00 | 0.00 | 73 | 1017.3 |
| 20260507220158 | 69 | 261 | 3.0 | 8.0 | 0.00 | 0.00 | 0.00 | 72 | 1017.0 |
| 20260507215654 | 69 | 204 | 6.0 | 7.0 | 0.00 | 0.00 | 0.00 | 71 | 1017.0 |
| 20260507215151 | 68 | 321 | 2.0 | 9.0 | 0.00 | 0.00 | 0.00 | 73 | 1017.3 |
| 20260507214648 | 69 | 269 | 4.0 | 7.0 | 0.00 | 0.00 | 0.00 | 71 | 1017.3 |
| 20260507214145 | 68 | 287 | 3.0 | 7.0 | 0.00 | 0.00 | 0.00 | 73 | 1017.3 |
| 20260507213641 | 69 | 212 | 4.0 | 8.0 | 0.00 | 0.00 | 0.00 | 73 | 1017.3 |
| 20260507213138 | 69 | 273 | 3.0 | 4.0 | 0.00 | 0.00 | 0.00 | 73 | 1017.6 |
| 20260507212634 | 68 | 267 | 4.0 | 7.0 | 0.00 | 0.00 | 0.00 | 72 | 1017.3 |
| 20260507212131 | 69 | 282 | 5.0 | 7.0 | 0.00 | 0.00 | 0.00 | 72 | 1017.3 |
| 20260507211628 | 68 | 287 | 2.0 | 6.0 | 0.00 | 0.00 | 0.00 | 72 | 1017.6 |
| 20260507211123 | 68 | 226 | 3.0 | 7.0 | 0.00 | 0.00 | 0.00 | 72 | 1017.6 |
| 20260507210622 | 68 | 279 | 4.0 | 8.0 | 0.00 | 0.00 | 0.00 | 73 | 1017.6 |
| 20260507210118 | 68 | 237 | 5.0 | 8.0 | 0.00 | 0.00 | 0.00 | 73 | 1017.3 |
| 20260507205615 | 68 | 215 | 3.0 | 6.0 | 0.00 | 0.00 | 0.00 | 72 | 1017.6 |
| 20260507205111 | 70 | 204 | 1.0 | 4.0 | 0.00 | 0.00 | 0.00 | 70 | 1018.0 |
| 20260507204607 | 70 | 264 | 4.0 | 9.0 | 0.00 | 0.00 | 0.00 | 70 | 1017.6 |
| 20260507204105 | 69 | 319 | 2.0 | 7.0 | 0.00 | 0.00 | 0.00 | 72 | 1018.0 |
| 20260507203603 | 68 | 291 | 3.0 | 8.0 | 0.00 | 0.00 | 0.00 | 72 | 1018.0 |
| 20260507203100 | 68 | 275 | 4.0 | 9.0 | 0.00 | 0.00 | 0.00 | 72 | 1018.0 |
| 20260507202555 | 69 | 331 | 2.0 | 7.0 | 0.00 | 0.00 | 0.00 | 72 | 1018.0 |
| 20260507202052 | 69 | 239 | 4.0 | 7.0 | 0.00 | 0.00 | 0.00 | 71 | 1018.0 |
| 20260507201547 | 70 | 328 | 0.0 | 4.0 | 0.00 | 0.00 | 0.00 | 70 | 1017.6 |
| 20260507201044 | 70 | 322 | 2.0 | 4.0 | 0.00 | 0.00 | 0.00 | 69 | 1018.0 |
| 20260507200539 | 71 | 242 | 2.0 | 6.0 | 0.00 | 0.00 | 0.00 | 70 | 1018.3 |
| 20260507200036 | 69 | 260 | 2.0 | 6.0 | 0.00 | 0.00 | 0.00 | 71 | 1018.3 |
| 20260507195533 | 69 | 315 | 6.0 | 7.0 | 0.00 | 0.00 | 0.00 | 71 | 1018.0 |
| 20260507195031 | 69 | 192 | 5.0 | 8.0 | 0.00 | 0.00 | 0.00 | 71 | 1018.3 |
| 20260507194527 | 69 | 299 | 1.0 | 4.0 | 0.00 | 0.00 | 0.00 | 71 | 1018.7 |
| 20260507194023 | 69 | 293 | 3.0 | 7.0 | 0.00 | 0.00 | 0.00 | 72 | 1018.7 |
| 20260507193520 | 69 | 8 | 0.0 | 4.0 | 0.00 | 0.00 | 0.00 | 73 | 1018.3 |
| 20260507193017 | 68 | 255 | 4.0 | 7.0 | 0.00 | 0.00 | 0.00 | 73 | 1018.3 |
| 20260507192513 | 69 | 272 | 1.0 | 6.0 | 0.00 | 0.00 | 0.00 | 71 | 1018.7 |
| 20260507192010 | 69 | 303 | 2.0 | 6.0 | 0.00 | 0.00 | 0.00 | 72 | 1018.7 |
| 20260507191506 | 69 | 241 | 2.0 | 6.0 | 0.00 | 0.00 | 0.00 | 73 | 1018.7 |
| 20260507191003 | 69 | 290 | 3.0 | 7.0 | 0.00 | 0.00 | 0.00 | 72 | 1018.7 |
| 20260507190500 | 68 | 179 | 2.0 | 6.0 | 0.00 | 0.00 | 0.00 | 72 | 1018.7 |
| 20260507185959 | 69 | 235 | 5.0 | 6.0 | 0.00 | 0.00 | 0.00 | 70 | 1018.7 |
| 20260507185456 | 69 | 216 | 2.0 | 7.0 | 0.00 | 0.00 | 0.00 | 72 | 1018.7 |
| 20260507184953 | 69 | 41 | 1.0 | 3.0 | 0.00 | 0.00 | 0.00 | 71 | 1018.7 |
| 20260507184451 | 68 | 266 | 2.0 | 4.0 | 0.00 | 0.00 | 0.00 | 72 | 1019.0 |
| 20260507183949 | 69 | 272 | 3.0 | 4.0 | 0.00 | 0.00 | 0.00 | 70 | 1019.0 |
| 20260507183444 | 68 | 9 | 1.0 | 4.0 | 0.00 | 0.00 | 0.00 | 72 | 1018.7 |
| 20260507182942 | 68 | 188 | 4.0 | 8.0 | 0.00 | 0.00 | 0.00 | 71 | 1018.7 |
| 20260507182438 | 69 | 311 | 1.0 | 6.0 | 0.00 | 0.00 | 0.00 | 72 | 1018.7 |
| 20260507181934 | 69 | 158 | 2.0 | 6.0 | 0.00 | 0.00 | 0.00 | 71 | 1019.0 |
| 20260507181430 | 69 | 322 | 3.0 | 4.0 | 0.00 | 0.00 | 0.00 | 71 | 1019.0 |
| 20260507180927 | 68 | 300 | 2.0 | 3.0 | 0.00 | 0.00 | 0.00 | 73 | 1019.0 |
| 20260507180424 | 68 | 226 | 3.0 | 4.0 | 0.00 | 0.00 | 0.00 | 73 | 1018.7 |
| 20260507175920 | 68 | 295 | 2.0 | 4.0 | 0.00 | 0.00 | 0.00 | 73 | 1019.0 |
| 20260507175417 | 68 | 254 | 1.0 | 4.0 | 0.00 | 0.00 | 0.00 | 73 | 1019.0 |
| 20260507174915 | 67 | 296 | 1.0 | 7.0 | 0.00 | 0.00 | 0.00 | 74 | 1019.0 |
| 20260507174412 | 67 | 178 | 1.0 | 4.0 | 0.00 | 0.00 | 0.00 | 74 | 1019.0 |
| 20260507173909 | 67 | 255 | 1.0 | 4.0 | 0.00 | 0.00 | 0.00 | 75 | 1018.7 |
| 20260507173406 | 67 | 300 | 3.0 | 4.0 | 0.00 | 0.00 | 0.00 | 74 | 1019.0 |
| 20260507172902 | 68 | 296 | 2.0 | 6.0 | 0.00 | 0.00 | 0.00 | 73 | 1019.0 |
| 20260507172359 | 67 | 254 | 4.0 | 4.0 | 0.00 | 0.00 | 0.00 | 74 | 1018.7 |
| 20260507171855 | 67 | 301 | 2.0 | 3.0 | 0.00 | 0.00 | 0.00 | 75 | 1019.3 |
| 20260507171352 | 67 | 312 | 2.0 | 3.0 | 0.00 | 0.00 | 0.00 | 75 | 1019.0 |
| 20260507170849 | 68 | 300 | 3.0 | 4.0 | 0.00 | 0.00 | 0.00 | 73 | 1019.0 |
| 20260507170345 | 67 | 298 | 3.0 | 4.0 | 0.00 | 0.00 | 0.00 | 75 | 1019.0 |
| 20260507165841 | 68 | 305 | 2.0 | 4.0 | 0.00 | 0.00 | 0.00 | 74 | 1019.0 |
| 20260507165337 | 68 | 328 | 2.0 | 3.0 | 0.00 | 0.00 | 0.00 | 73 | 1019.0 |
| 20260507164834 | 68 | 327 | 1.0 | 4.0 | 0.00 | 0.00 | 0.00 | 74 | 1019.0 |
| 20260507164331 | 68 | 315 | 2.0 | 2.0 | 0.00 | 0.00 | 0.00 | 72 | 1019.0 |
| 20260507163828 | 68 | 308 | 1.0 | 2.0 | 0.00 | 0.00 | 0.00 | 73 | 1019.0 |
| 20260507163325 | 68 | 308 | 2.0 | 2.0 | 0.00 | 0.00 | 0.00 | 72 | 1019.3 |
| 20260507162821 | 67 | 319 | 2.0 | 2.0 | 0.00 | 0.00 | 0.00 | 74 | 1019.0 |
| 20260507162317 | 66 | 326 | 1.0 | 3.0 | 0.00 | 0.00 | 0.00 | 76 | 1019.0 |
| 20260507161815 | 67 | 345 | 1.0 | 3.0 | 0.00 | 0.00 | 0.00 | 76 | 1019.0 |
| 20260507161311 | 65 | 353 | 0.0 | 2.0 | 0.00 | 0.00 | 0.00 | 80 | 1019.3 |
| 20260507160808 | 65 | 344 | 1.0 | 2.0 | 0.00 | 0.00 | 0.00 | 79 | 1019.0 |
| 20260507160303 | 65 | 331 | 1.0 | 3.0 | 0.00 | 0.00 | 0.00 | 78 | 1019.0 |
| 20260507155759 | 65 | 346 | 1.0 | 3.0 | 0.00 | 0.00 | 0.00 | 79 | 1019.3 |
| 20260507155255 | 65 | 349 | 1.0 | 3.0 | 0.00 | 0.00 | 0.00 | 80 | 1019.3 |
| 20260507154752 | 65 | 343 | 1.0 | 2.0 | 0.00 | 0.00 | 0.00 | 80 | 1019.3 |
| 20260507154250 | 65 | 359 | 1.0 | 1.0 | 0.00 | 0.00 | 0.00 | 80 | 1019.3 |
| 20260507153746 | 65 | 354 | 1.0 | 3.0 | 0.00 | 0.00 | 0.00 | 80 | 1019.3 |
| 20260507153243 | 64 | 1 | 2.0 | 3.0 | 0.00 | 0.00 | 0.00 | 80 | 1019.3 |
| 20260507152739 | 65 | 11 | 1.0 | 2.0 | 0.00 | 0.00 | 0.00 | 80 | 1019.0 |
| 20260507152236 | 64 | 12 | 2.0 | 2.0 | 0.00 | 0.00 | 0.00 | 82 | 1019.3 |
| 20260507151732 | 64 | 350 | 2.0 | 2.0 | 0.00 | 0.00 | 0.00 | 81 | 1019.0 |
| 20260507151228 | 64 | 357 | 2.0 | 3.0 | 0.00 | 0.00 | 0.00 | 81 | 1019.3 |
| 20260507150725 | 64 | 11 | 1.0 | 2.0 | 0.00 | 0.00 | 0.00 | 82 | 1019.0 |
| 20260507150222 | 63 | 6 | 0.0 | 1.0 | 0.00 | 0.00 | 0.00 | 82 | 1019.3 |
| 20260507145718 | 64 | 8 | 0.0 | 1.0 | 0.00 | 0.00 | 0.00 | 83 | 1019.3 |
| 20260507145215 | 63 | 8 | 1.0 | 1.0 | 0.00 | 0.00 | 0.00 | 82 | 1019.3 |
| 20260507144712 | 63 | 11 | 0.0 | 1.0 | 0.00 | 0.00 | 0.00 | 82 | 1019.0 |
| 20260507144210 | 63 | 11 | 1.0 | 2.0 | 0.00 | 0.00 | 0.00 | 82 | 1019.3 |
| 20260507143706 | 64 | 10 | 0.0 | 1.0 | 0.00 | 0.00 | 0.00 | 82 | 1019.3 |
| 20260507143203 | 63 | 10 | 0.0 | 0.0 | 0.00 | 0.00 | 0.00 | 82 | 1019.0 |
| 20260507142659 | 63 | 11 | 0.0 | 0.0 | 0.00 | 0.00 | 0.00 | 85 | 1018.7 |
| 20260507142156 | 62 | 11 | 0.0 | 0.0 | 0.00 | 0.00 | 0.00 | 87 | 1019.0 |
| 20260507141652 | 61 | 10 | 0.0 | 0.0 | 0.00 | 0.00 | 0.00 | 90 | 1019.0 |
| 20260507141149 | 61 | 10 | 0.0 | 0.0 | 0.00 | 0.00 | 0.00 | 92 | 1019.0 |
| 20260507140645 | 61 | 10 | 0.0 | 0.0 | 0.00 | 0.00 | 0.00 | 94 | 1018.7 |
| 20260507140143 | 62 | 10 | 0.0 | 0.0 | 0.00 | 0.00 | 0.00 | 95 | 1019.0 |
| 20260507135640 | 61 | 11 | 0.0 | 0.0 | 0.00 | 0.00 | 0.00 | 95 | 1019.0 |
| 20260507135137 | 60 | 10 | 0.0 | 0.0 | 0.00 | 0.00 | 0.00 | 95 | 1018.7 |
| 20260507134633 | 60 | 10 | 0.0 | 0.0 | 0.00 | 0.00 | 0.00 | 95 | 1018.7 |
| 20260507134130 | 60 | 10 | 0.0 | 0.0 | 0.00 | 0.00 | 0.00 | 95 | 1018.7 |
| 20260507133625 | 59 | 10 | 0.0 | 0.0 | 0.00 | 0.00 | 0.00 | 95 | 1018.3 |
| 20260507133123 | 57 | 10 | 0.0 | 0.0 | 0.00 | 0.00 | 0.00 | 95 | 1018.7 |
| 20260507132620 | 56 | 10 | 0.0 | 0.0 | 0.00 | 0.00 | 0.00 | 95 | 1018.7 |
| 20260507132116 | 56 | 10 | 0.0 | 0.0 | 0.00 | 0.00 | 0.00 | 95 | 1018.7 |
| 20260507131613 | 56 | 10 | 0.0 | 0.0 | 0.00 | 0.00 | 0.00 | 95 | 1018.7 |
| 20260507131111 | 56 | 9 | 0.0 | 0.0 | 0.00 | 0.00 | 0.00 | 95 | 1018.7 |
| 20260507130607 | 56 | 9 | 0.0 | 0.0 | 0.00 | 0.00 | 0.00 | 95 | 1018.7 |
| 20260507130106 | 56 | 9 | 0.0 | 0.0 | 0.00 | 0.00 | 0.00 | 95 | 1018.3 |
| 20260507125604 | 55 | 9 | 0.0 | 0.0 | 0.00 | 0.00 | 0.00 | 95 | 1018.3 |
| 20260507125101 | 55 | 9 | 0.0 | 0.0 | 0.00 | 0.00 | 0.00 | 95 | 1018.3 |
| 20260507124557 | 55 | 9 | 0.0 | 0.0 | 0.00 | 0.00 | 0.00 | 95 | 1018.3 |
| 20260507124055 | 55 | 9 | 0.0 | 0.0 | 0.00 | 0.00 | 0.00 | 95 | 1018.7 |
| 20260507123553 | 55 | 9 | 0.0 | 0.0 | 0.00 | 0.00 | 0.00 | 95 | 1018.3 |
| 20260507123050 | 55 | 9 | 0.0 | 0.0 | 0.00 | 0.00 | 0.00 | 95 | 1018.3 |
| 20260507122545 | 55 | 9 | 0.0 | 0.0 | 0.00 | 0.00 | 0.00 | 95 | 1018.7 |